Vorticity
2 3 2 3 2 2 2 2 2 2 2 3 3 4 5 5 6 6 6 5 5 4 4 3 2 1 1 1 1 1 1 1 1 1 1 -0 0 2 1 1 1 1 1 1 2 2 2 2 2 4 5 5 5 6 7 7 8 9 11 11 6 2 2 1 1 1 3 6 7 7 6 7 8 6 8 12 12 13 12 5 3 5 4 5 5 2 4 7
1 1 1 1 1 1 2 2 3 3 4 5 6 6 7 7 7 6 6 6 6 6 5 4 4 3 2 2 1 1 1 1 1 1 2 1 0 0 1 1 1 2 2 3 2 2 1 1 2 4 6 6 7 8 8 8 8 9 9 6 3 3 3 2 2 3 5 8 7 6 6 4 4 6 8 10 13 15 15 9 6 7 5 4 5 5 3 1
1 1 1 1 2 3 3 4 5 5 6 6 7 7 7 7 7 6 5 5 5 4 5 5 4 4 3 2 2 2 2 1 1 1 1 2 1 1 1 1 2 3 3 3 2 2 1 2 3 5 7 8 8 9 7 6 6 7 6 4 2 3 3 3 3 5 6 6 7 6 4 2 2 5 6 10 13 13 12 11 10 9 7 6 5 5 4 1
2 3 3 4 5 6 6 6 7 7 7 7 7 7 6 5 5 4 4 4 3 3 3 3 4 4 4 3 3 3 2 2 2 2 2 2 3 4 4 3 4 3 2 2 1 2 2 3 5 7 9 10 8 8 6 5 6 5 4 3 2 3 5 5 5 5 6 6 6 5 3 3 3 3 5 10 12 10 9 8 12 12 10 9 7 5 3 3
6 6 7 7 8 8 8 8 8 8 7 6 6 5 5 4 3 3 3 3 3 3 3 3 3 3 3 3 3 3 3 3 3 3 3 4 4 4 3 3 3 2 1 1 2 3 4 5 7 9 11 10 8 7 6 4 4 3 2 3 3 4 6 5 5 5 5 5 4 4 4 3 3 2 3 7 9 9 9 7 11 13 12 10 9 8 5 4
9 9 9 9 8 8 7 7 6 6 5 5 4 4 3 3 2 2 2 3 3 3 3 3 3 3 3 3 3 3 2 3 4 3 4 3 3 3 2 2 1 1 2 3 5 6 8 9 10 12 13 10 7 5 5 3 2 0 1 3 3 4 6 5 4 4 4 4 4 4 5 4 4 2 2 5 6 8 8 7 8 11 11 10 10 10 9 8
8 8 7 6 6 5 4 4 4 3 3 2 2 2 2 2 1 2 1 1 1 1 1 1 2 2 2 2 3 2 1 3 4 2 2 2 1 2 1 1 2 3 5 8 9 11 13 13 12 12 12 8 5 5 4 2 -0 -1 -0 2 3 4 5 4 4 5 4 4 4 5 5 5 5 3 2 3 3 6 8 7 6 7 7 6 6 7 8 8
4 4 3 3 3 2 2 2 2 1 2 1 1 1 1 1 0 0 1 1 1 1 2 2 2 2 1 1 1 1 1 2 3 2 1 1 2 2 3 4 6 9 11 13 13 14 13 11 10 10 9 6 5 5 3 1 -1 -0 1 2 4 5 6 5 5 4 3 4 4 5 6 5 5 3 3 3 2 3 6 8 6 5 5 5 4 3 3 3
1 1 1 1 1 1 1 1 1 1 1 1 0 1 1 1 1 2 2 3 4 4 5 5 5 5 5 5 4 4 5 4 4 5 5 5 6 7 10 11 13 15 14 13 12 10 8 7 7 7 6 5 5 5 2 1 0 1 2 3 5 5 5 5 4 3 3 5 5 5 6 4 5 4 4 4 3 4 5 7 6 5 5 5 5 4 3 4
1 2 1 2 2 1 1 1 1 2 1 2 2 2 2 2 3 4 6 7 8 9 10 10 11 11 11 11 12 11 11 10 10 11 12 12 13 13 14 14 13 12 10 9 7 6 5 5 5 4 4 4 4 3 2 1 1 2 3 4 5 4 5 4 4 4 4 6 5 4 5 5 5 4 4 4 4 5 5 5 5 5 5 5 7 6 3 5
3 3 3 3 3 3 3 3 3 3 3 4 4 4 5 6 7 8 9 9 9 9 10 10 10 11 12 12 14 13 12 13 12 12 12 12 12 11 10 9 7 5 4 3 2 2 2 2 2 2 2 2 2 2 2 2 3 4 4 4 5 4 5 4 4 5 5 5 5 4 6 6 6 6 5 5 4 5 6 7 7 7 6 7 7 4 5 8
5 5 6 5 6 5 5 6 6 6 6 7 7 8 8 9 9 9 8 6 5 4 4 3 4 4 5 6 7 7 7 8 8 7 7 6 6 5 4 3 2 1 -0 0 1 1 1 2 2 3 3 3 4 3 3 4 4 4 4 4 5 5 5 4 4 6 6 6 6 6 6 6 7 7 6 5 5 5 6 8 8 8 8 8 7 6 8 9
8 7 8 7 8 8 8 9 8 8 9 9 9 9 9 8 7 5 3 2 2 2 2 2 3 3 3 4 3 3 3 3 3 3 3 2 2 2 1 1 1 1 1 2 3 3 3 4 4 4 4 4 4 4 4 4 4 4 5 5 5 5 5 4 5 6 6 7 6 6 6 5 6 7 6 7 7 7 7 9 9 9 9 8 9 10 10 9
7 7 8 8 7 8 8 8 8 8 8 7 7 6 5 5 3 2 2 2 3 3 4 5 5 5 6 6 5 5 5 4 5 4 4 3 3 4 4 4 4 4 5 5 4 5 5 5 5 5 5 5 5 5 5 5 6 7 6 7 6 6 6 6 6 6 6 6 7 7 7 7 6 8 9 8 7 8 9 9 9 9 8 7 8 11 12 12
5 5 4 5 5 5 5 5 5 5 5 4 4 3 3 3 2 2 3 3 4 4 5 5 6 6 7 7 7 8 8 7 7 6 6 6 5 5 5 5 6 6 5 5 5 5 6 5 6 7 7 7 7 7 7 7 8 7 6 6 6 6 7 6 6 7 7 7 7 7 8 8 8 9 9 8 9 9 9 9 9 9 6 6 9 11 12 12
4 4 4 4 4 4 4 4 4 3 4 3 3 3 3 3 4 4 5 6 6 7 7 7 7 7 7 7 7 6 6 6 5 5 5 6 6 6 5 6 6 6 6 6 7 7 8 8 8 8 8 8 7 7 6 6 7 6 4 5 5 5 5 6 7 8 7 7 7 7 7 9 10 9 8 9 9 8 10 10 8 5 6 11 15 14 11 11
5 5 5 5 5 5 5 5 5 5 5 5 5 6 6 7 7 7 8 8 8 8 7 6 6 6 6 6 6 6 6 6 6 6 6 6 6 6 6 7 7 7 8 8 8 9 8 7 7 6 6 6 6 5 5 5 6 5 4 5 6 5 6 6 7 7 6 6 5 5 5 5 6 7 8 9 8 8 8 7 8 10 12 14 14 13 12 12
10 10 9 9 9 8 9 8 9 9 8 9 9 9 9 9 8 8 7 6 6 5 5 5 6 6 7 7 7 7 8 7 7 6 7 7 7 7 7 7 7 7 8 8 7 7 5 4 3 3 4 6 6 5 5 6 6 5 5 6 6 6 6 6 6 6 5 5 4 4 4 3 2 3 4 6 7 7 6 7 12 15 12 11 12 13 12 12
9 9 9 9 9 8 9 9 8 8 8 7 7 7 6 6 5 5 5 5 6 6 7 7 7 8 8 8 8 8 8 8 8 8 8 8 7 8 7 7 7 7 7 7 6 4 2 1 2 5 6 6 6 6 7 8 8 7 7 7 7 6 6 5 4 4 4 3 3 3 3 2 3 4 5 5 4 7 11 12 12 9 8 9 10 10 10 12
4 5 5 4 5 5 5 5 4 5 5 5 4 5 5 5 6 7 7 8 8 9 9 9 9 8 8 8 7 6 7 8 8 8 8 9 8 8 8 7 7 7 6 6 4 2 -0 -1 2 6 6 4 5 6 7 9 9 8 8 7 7 6 6 6 5 5 5 5 6 6 5 5 6 8 10 9 6 8 12 12 10 10 10 11 9 6 6 7
6 5 5 5 5 5 5 5 6 6 6 7 7 7 8 8 8 8 8 8 8 8 7 6 6 5 5 5 4 4 5 6 6 6 6 6 7 8 8 9 8 8 7 6 4 3 1 1 4 8 7 6 7 8 8 8 7 7 7 7 8 9 9 9 9 10 9 10 11 11 10 9 9 12 13 12 11 10 8 8 9 10 12 12 11 8 6 2
7 7 7 7 6 7 7 7 7 7 7 8 8 8 8 7 7 7 6 6 5 5 4 4 4 3 4 4 5 5 5 6 6 6 7 6 7 6 5 6 6 5 4 4 4 4 3 5 11 12 11 12 13 12 10 9 9 9 9 9 10 11 11 10 10 10 9 10 11 10 10 9 11 13 11 12 14 11 7 7 8 8 9 9 8 7 6 2
5 5 6 6 6 6 6 6 6 6 6 6 6 5 5 4 5 4 4 4 4 4 3 2 4 5 6 7 8 8 7 7 6 7 9 10 11 10 8 7 6 5 5 6 7 6 8 13 15 14 13 14 14 13 12 12 12 11 11 11 11 11 9 8 9 9 9 10 9 8 7 7 10 11 10 11 12 9 9 9 6 4 3 3 4 7 6 3
3 3 3 3 4 4 4 5 4 4 4 3 3 3 3 3 3 4 4 4 3 3 3 3 5 7 8 7 7 7 5 4 5 7 8 10 10 9 10 10 9 11 13 13 11 9 13 17 14 12 11 10 12 14 14 12 11 11 11 11 11 11 9 9 9 9 10 9 9 7 4 6 10 10 12 13 8 5 8 9 8 7 4 1 1 4 6 6
2 2 3 3 3 4 4 4 3 3 2 2 2 1 1 1 2 3 4 6 5 3 4 4 7 8 6 4 3 4 4 4 6 8 9 10 10 10 11 11 10 13 14 13 10 9 14 16 13 12 11 9 11 15 12 9 10 12 12 10 10 10 10 10 9 7 6 6 5 6 6 7 7 7 9 10 6 5 8 7 8 10 9 6 3 2 5 6
2 3 3 3 3 3 3 3 1 1 0 1 -0 -1 0 -0 0 3 5 8 7 4 5 5 6 7 5 4 4 6 8 7 8 9 11 12 11 12 13 12 12 12 10 9 8 11 15 13 10 11 10 7 9 11 8 6 8 9 10 9 9 9 7 8 7 5 5 3 1 4 9 7 4 4 5 3 4 7 8 5 3 3 3 3 2 1 2 3
1 2 3 3 3 3 3 3 2 2 3 3 3 2 2 2 3 6 7 8 6 5 6 6 7 8 7 7 9 10 9 9 10 11 12 14 14 14 14 14 15 15 13 10 11 14 11 5 5 6 4 4 8 9 5 4 5 6 7 6 6 7 6 8 6 4 5 3 3 10 13 8 4 4 3 0 1 4 3 2 1 1 2 2 3 3 5 8
2 3 4 4 5 6 7 7 8 8 7 6 7 8 8 10 10 10 9 8 7 7 8 8 8 7 6 7 8 8 9 10 12 13 13 13 12 11 12 11 10 11 11 8 8 8 4 2 2 0 0 5 9 7 4 6 8 8 7 5 6 6 7 7 4 5 7 2 4 11 8 4 6 5 2 0 2 3 3 2 2 2 2 0 2 5 7 11
5 6 7 8 9 10 11 12 13 13 14 14 12 12 13 13 11 11 8 5 6 7 6 6 7 7 6 6 6 7 10 13 13 12 13 12 9 7 7 6 4 4 5 4 5 4 3 3 2 3 8 10 10 8 7 9 10 9 9 8 7 7 7 6 5 7 5 -0 6 11 3 3 7 6 3 2 3 4 2 2 4 5 7 7 10 14 15 17
9 9 12 14 15 15 14 14 14 14 16 17 15 13 13 11 10 10 7 4 9 12 8 7 9 9 9 7 7 7 6 7 9 11 13 10 8 6 4 5 4 1 1 2 5 6 6 8 9 12 13 11 11 11 9 8 7 9 9 8 9 9 7 5 4 5 2 2 10 10 3 4 5 4 5 1 -1 -0 -2 0 6 9 12 15 20 23 21 19
11 13 16 17 16 14 10 8 9 13 15 15 15 13 11 10 9 7 7 9 12 12 9 10 9 9 10 10 11 10 7 5 6 10 12 9 7 5 4 4 4 3 4 6 9 9 10 12 13 12 11 12 13 9 7 7 7 9 8 8 9 7 6 5 5 5 4 5 7 4 -0 1 2 1 1 -3 -5 -4 -5 -2 6 9 10 11 14 17 15 12
11 14 15 14 14 12 11 11 10 12 16 15 14 14 13 12 8 7 12 15 15 14 12 12 9 9 12 13 13 13 12 11 10 8 7 6 6 5 5 6 6 7 9 10 10 8 10 11 10 10 10 9 7 5 6 7 8 10 10 10 9 6 6 5 3 3 3 4 4 3 -0 -0 -1 -3 -2 -1 0 -1 -4 -2 7 13 13 11 11 10 8 8
9 7 5 2 5 8 10 11 9 7 9 9 8 9 11 8 7 9 12 13 11 10 8 7 6 7 10 11 11 11 11 12 12 9 6 4 4 4 6 8 9 11 11 10 8 5 6 5 4 5 3 1 2 2 3 3 6 8 7 6 6 4 5 5 4 5 6 6 3 -0 -1 1 3 4 5 5 4 2 1 6 13 14 11 10 10 9 7 9
5 4 -1 -2 4 9 6 4 8 9 5 5 7 9 9 9 12 13 9 5 4 3 3 5 8 11 13 14 12 11 12 10 9 9 7 4 2 2 4 5 7 7 5 3 1 -0 0 -2 -2 1 -1 0 3 1 1 4 7 8 6 5 4 4 6 7 8 6 4 4 2 1 2 4 5 4 4 4 5 8 10 15 16 11 10 10 8 8 7 8
15 14 8 10 13 10 8 7 11 11 6 7 9 9 7 6 8 7 1 -1 -1 1 3 4 5 5 3 3 4 6 6 5 4 5 5 4 3 1 1 1 2 3 2 2 3 3 1 -0 2 6 8 9 8 6 8 11 12 10 8 7 6 5 4 2 2 0 -1 0 2 2 1 1 3 1 4 12 15 17 18 18 15 9 9 9 6 6 4 3
18 12 8 17 21 17 14 8 3 2 -1 1 5 4 1 -1 -1 -1 -0 2 2 2 3 4 3 0 -2 -1 3 6 5 4 4 3 3 5 4 2 2 2 2 4 5 7 8 6 5 7 8 11 13 11 10 11 13 14 15 14 12 9 6 3 -3 -5 -2 -2 -0 -0 -1 1 0 5 9 3 9 22 20 18 18 13 11 10 9 8 6 5 3 1
9 6 -2 -1 8 11 2 -12 -11 0 4 4 4 3 1 -1 -0 2 5 8 7 5 6 8 6 6 8 6 3 1 -0 -1 1 -0 -1 2 3 4 6 6 6 7 7 9 11 9 11 13 12 14 14 8 9 15 16 17 14 10 8 3 -1 -1 -2 1 4 3 5 5 1 5 7 9 11 5 13 25 18 13 13 8 9 11 8 9 8 6 4 4
4 7 -1 -5 -0 2 -1 -4 2 9 7 2 0 -0 1 5 8 10 11 10 7 6 7 8 7 8 10 7 2 1 -1 -2 1 4 3 4 5 6 7 6 8 11 11 14 15 10 11 11 5 8 9 3 5 9 7 5 1 -2 -1 -2 -1 3 3 6 7 4 8 10 6 8 10 8 11 13 19 22 13 9 11 9 9 8 6 8 7 4 5 5
-1 -1 -4 -2 -1 -6 -6 2 8 6 -1 -2 3 6 7 11 11 10 9 8 8 9 8 10 12 10 9 6 -0 -2 1 2 4 8 10 10 12 13 13 13 15 15 13 13 12 8 8 5 -1 2 5 3 3 4 2 1 -0 -0 1 3 6 7 8 9 7 8 14 14 10 12 11 9 16 21 18 15 12 10 11 9 8 7 7 7 4 3 4 4
9 7 -1 -4 -2 -4 -5 -1 1 3 3 4 10 9 4 4 3 -2 -2 -1 1 3 3 5 6 5 6 6 0 -2 3 7 8 11 12 12 17 18 16 18 19 15 12 11 9 5 5 5 3 6 7 4 3 1 2 3 5 8 9 10 12 12 14 13 7 14 22 14 10 14 8 5 12 16 14 13 10 8 9 10 9 7 7 5 4 6 7 7
11 14 13 9 9 10 10 10 3 -3 -2 0 1 1 -2 1 3 2 1 -0 -0 1 2 3 4 4 3 3 4 5 8 11 13 13 10 13 21 17 9 11 12 9 7 6 4 2 0 -1 2 6 2 -1 -1 -0 4 7 9 14 13 11 14 14 16 13 5 13 23 15 10 13 7 3 8 14 17 15 12 11 11 9 7 6 6 6 7 7 7 7
9 10 12 12 13 13 15 16 11 3 4 5 1 -2 -2 0 2 2 1 0 3 5 4 3 4 5 4 6 11 13 15 17 14 13 13 16 19 12 5 7 6 1 -1 -2 -3 -3 -4 -2 6 11 7 0 -4 -3 5 9 9 12 9 7 10 9 11 13 7 11 19 12 7 10 8 3 5 12 12 8 8 9 9 9 9 9 11 11 10 9 9 8
17 15 13 10 10 13 12 10 10 6 1 -1 -3 -3 -0 2 4 7 8 9 11 10 8 6 4 3 5 9 12 11 12 9 4 5 8 7 6 2 -2 -1 -5 -9 -9 -8 -6 -3 3 10 14 12 9 5 -4 -10 -2 5 8 13 12 10 11 10 12 13 8 10 12 5 8 16 10 5 11 16 10 6 10 11 11 11 9 7 8 8 5 5 5 5
8 7 13 20 22 22 18 16 17 12 4 4 8 10 12 12 14 20 20 16 10 6 6 7 4 3 4 7 8 8 12 11 6 9 10 6 7 5 2 1 -2 -3 -2 -2 -2 1 5 7 3 1 8 13 10 8 13 16 15 13 9 8 10 10 11 10 9 14 12 9 18 16 3 6 16 11 2 3 8 8 6 4 0 -0 1 0 -1 -1 1 2
-1 -4 1 10 14 13 14 17 19 17 16 18 18 17 16 15 16 17 13 6 -1 -5 -2 2 3 3 3 8 13 15 18 18 14 12 10 7 7 6 6 8 5 4 5 3 3 3 2 1 1 5 11 15 16 18 16 13 11 8 6 7 7 6 8 10 10 11 8 8 12 3 -1 8 6 -5 -3 5 6 3 1 -0 0 2 2 1 2 3 3 4
-12 -9 -11 -13 -14 -13 -10 -6 -3 1 2 -0 -1 1 3 3 3 0 -4 -6 -8 -8 -2 6 9 8 10 17 21 18 18 18 12 4 -1 -2 3 8 11 12 10 10 12 12 13 13 12 11 11 11 11 11 15 17 14 11 9 8 7 7 7 8 9 9 7 7 8 7 2 -3 4 9 -0 -2 7 11 9 7 6 6 6 6 6 6 7 6 6 7
-13 -9 -12 -20 -18 -11 -13 -19 -17 -13 -16 -19 -13 -6 -5 -6 -7 -7 -8 -8 -5 1 10 13 13 13 16 18 15 11 11 8 -0 -8 -9 -1 10 15 14 14 14 13 12 12 12 11 11 10 10 11 10 9 11 13 14 14 12 10 9 8 9 9 9 7 7 7 8 6 1 1 7 6 2 6 6 3 5 7 6 7 7 7 8 9 9 10 10 11
2 4 1 -8 -6 1 -2 -9 -7 -3 -5 -4 2 5 3 0 -1 1 4 5 6 8 10 9 10 14 16 10 4 0 -2 -5 -7 -6 -3 6 15 15 14 14 13 11 11 11 10 10 10 9 10 10 9 8 11 12 12 13 12 11 10 9 8 9 9 10 8 4 3 3 5 9 9 4 3 7 8 7 7 5 6 8 8 9 11 10 11 11 10 10
12 13 15 11 9 10 10 9 8 10 11 11 10 10 10 10 9 9 11 13 12 11 9 7 9 14 15 10 5 1 -2 -2 -1 0 4 12 15 13 13 13 10 11 13 13 12 12 10 11 12 10 9 11 12 13 14 13 11 9 8 6 6 8 9 8 4 4 5 4 6 9 8 5 5 10 12 10 7 5 8 9 9 10 10 8 8 7 6 5
14 14 16 16 16 15 16 15 12 12 13 10 9 10 10 10 10 11 12 10 8 8 9 7 6 8 8 7 7 8 8 8 5 5 10 16 14 11 10 9 8 10 12 13 13 11 10 11 11 11 12 11 11 14 14 11 10 10 6 4 7 10 12 10 8 7 5 2 2 5 6 8 13 14 11 9 9 10 9 7 7 6 5 6 6 5 6 6
9 10 10 10 11 11 10 9 9 9 8 7 9 9 7 6 8 10 10 8 5 5 6 7 7 7 6 7 8 7 7 8 8 10 14 14 10 9 11 11 11 11 12 12 12 11 11 11 12 14 14 11 11 12 8 7 10 7 2 6 14 15 12 10 9 8 7 7 9 8 6 10 12 10 6 6 7 6 5 6 6 6 6 7 7 8 8 8
5 6 5 4 4 5 5 5 6 4 3 6 7 6 7 7 8 8 6 5 7 7 7 8 8 7 8 10 9 8 7 9 11 12 13 11 10 11 13 12 10 10 10 11 12 12 13 13 13 13 12 11 11 9 7 9 7 -0 3 14 17 11 8 8 8 8 9 11 10 8 7 7 6 4 4 6 6 6 7 8 8 8 9 9 8 8 8 7
Height
5869 5870 5870 5871 5871 5872 5872 5872 5873 5873 5874 5874 5875 5875 5875 5876 5876 5876 5877 5877 5877 5877 5878 5878 5879 5879 5879 5879 5879 5879 5880 5880 5880 5880 5880 5880 5880 5880 5880 5880 5880 5880 5880 5880 5880 5880 5880 5879 5879 5879 5878 5878 5878 5877 5877 5876 5876 5876 5876 5875 5874 5873 5873 5872 5871 5871 5871 5871 5869 5868 5868 5868 5868 5868 5867 5867 5867 5866 5865 5863 5861 5861 5861 5861 5860 5859 5858 5858
5867 5868 5868 5869 5869 5869 5870 5870 5870 5871 5871 5872 5872 5873 5873 5874 5874 5874 5875 5875 5875 5876 5876 5876 5877 5877 5877 5878 5878 5878 5878 5878 5878 5878 5878 5878 5878 5878 5878 5878 5878 5878 5878 5878 5878 5878 5877 5877 5877 5877 5876 5876 5876 5875 5875 5874 5874 5874 5874 5873 5872 5872 5871 5870 5869 5869 5869 5869 5867 5866 5865 5865 5865 5865 5865 5865 5866 5865 5862 5860 5858 5859 5859 5859 5858 5857 5856 5856
5865 5865 5866 5866 5867 5867 5867 5868 5868 5869 5869 5870 5870 5871 5871 5871 5872 5872 5873 5873 5873 5874 5874 5874 5875 5875 5875 5876 5876 5876 5876 5876 5876 5876 5876 5876 5876 5876 5876 5876 5876 5876 5876 5876 5876 5875 5875 5875 5874 5874 5874 5873 5873 5873 5872 5872 5872 5872 5872 5871 5870 5870 5870 5868 5867 5867 5867 5867 5866 5864 5863 5863 5862 5863 5863 5863 5864 5863 5859 5856 5857 5858 5858 5857 5856 5855 5854 5853
5862 5863 5863 5864 5864 5864 5865 5865 5866 5866 5867 5867 5868 5868 5869 5869 5870 5870 5870 5871 5871 5872 5872 5872 5872 5873 5873 5873 5874 5873 5873 5873 5873 5873 5874 5874 5874 5874 5874 5874 5874 5874 5874 5873 5873 5873 5872 5873 5872 5872 5872 5871 5871 5871 5870 5870 5870 5870 5870 5869 5868 5867 5868 5866 5865 5865 5865 5864 5864 5863 5862 5861 5860 5860 5860 5860 5861 5860 5857 5854 5855 5856 5856 5855 5854 5853 5851 5850
5859 5860 5860 5861 5861 5862 5862 5862 5863 5863 5864 5864 5865 5865 5866 5867 5867 5868 5868 5868 5869 5869 5870 5870 5870 5871 5871 5871 5871 5871 5871 5871 5870 5871 5871 5872 5871 5871 5871 5871 5871 5871 5871 5871 5870 5870 5869 5870 5870 5869 5869 5868 5868 5869 5869 5868 5868 5868 5868 5867 5866 5865 5865 5864 5862 5862 5862 5862 5861 5861 5861 5860 5859 5858 5858 5857 5858 5857 5855 5854 5853 5853 5853 5852 5852 5851 5849 5848
5856 5856 5857 5858 5858 5859 5859 5860 5860 5861 5861 5862 5862 5863 5863 5864 5864 5865 5865 5866 5866 5867 5867 5868 5868 5868 5869 5869 5869 5869 5869 5867 5868 5868 5869 5869 5869 5868 5869 5868 5868 5868 5868 5868 5867 5867 5866 5866 5866 5866 5867 5866 5865 5865 5866 5866 5866 5866 5865 5864 5863 5863 5863 5862 5860 5860 5860 5859 5859 5859 5859 5858 5856 5857 5857 5855 5855 5855 5853 5852 5851 5850 5849 5849 5848 5847 5846 5845
5853 5853 5854 5855 5855 5856 5856 5857 5857 5858 5858 5859 5859 5860 5861 5861 5862 5862 5863 5863 5864 5864 5865 5865 5865 5866 5866 5866 5866 5867 5866 5864 5864 5866 5866 5866 5866 5866 5866 5865 5865 5865 5865 5864 5864 5864 5863 5863 5863 5863 5864 5863 5862 5863 5862 5863 5863 5863 5863 5862 5861 5860 5860 5859 5858 5857 5856 5856 5856 5856 5857 5856 5854 5854 5855 5853 5852 5853 5851 5850 5849 5847 5846 5846 5845 5844 5843 5842
5849 5850 5851 5852 5852 5853 5854 5854 5855 5855 5856 5856 5857 5857 5858 5858 5859 5859 5860 5860 5861 5861 5861 5862 5862 5862 5863 5864 5864 5864 5863 5860 5860 5862 5863 5863 5863 5862 5862 5862 5862 5862 5861 5861 5861 5861 5861 5860 5860 5861 5861 5860 5860 5860 5859 5859 5860 5860 5859 5859 5858 5858 5857 5857 5856 5854 5853 5853 5853 5853 5854 5853 5851 5851 5852 5850 5850 5851 5849 5848 5846 5844 5843 5842 5841 5840 5839 5839
5846 5847 5848 5849 5849 5850 5851 5851 5852 5852 5853 5853 5854 5854 5855 5855 5855 5856 5856 5857 5857 5858 5858 5858 5859 5859 5860 5860 5861 5862 5859 5857 5858 5858 5859 5859 5859 5859 5859 5859 5859 5859 5858 5858 5858 5858 5858 5857 5858 5858 5858 5857 5858 5857 5856 5856 5857 5856 5855 5855 5855 5854 5854 5854 5853 5852 5850 5850 5850 5850 5852 5850 5847 5848 5849 5847 5846 5848 5847 5846 5844 5841 5840 5839 5837 5835 5835 5834
5843 5844 5844 5845 5846 5847 5847 5848 5849 5849 5850 5850 5851 5851 5851 5852 5852 5852 5853 5853 5853 5854 5855 5855 5855 5856 5856 5857 5858 5858 5855 5855 5855 5854 5855 5855 5855 5856 5856 5856 5856 5856 5855 5855 5855 5855 5855 5855 5855 5855 5855 5855 5855 5854 5853 5853 5853 5852 5852 5852 5851 5850 5851 5850 5849 5848 5848 5847 5847 5847 5848 5847 5844 5844 5845 5843 5842 5844 5845 5843 5841 5839 5837 5836 5834 5831 5830 5831
5839 5840 5841 5842 5842 5843 5844 5844 5845 5846 5846 5847 5847 5847 5848 5848 5849 5849 5849 5850 5850 5851 5851 5852 5852 5853 5853 5854 5855 5854 5853 5852 5852 5851 5852 5852 5852 5853 5853 5853 5853 5853 5852 5852 5852 5852 5852 5851 5852 5851 5851 5852 5852 5851 5850 5850 5849 5849 5849 5848 5848 5846 5846 5846 5845 5845 5845 5844 5845 5843 5843 5844 5841 5840 5840 5839 5838 5839 5840 5840 5838 5835 5833 5832 5831 5828 5828 5828
5835 5836 5837 5837 5838 5839 5840 5840 5841 5841 5842 5843 5843 5844 5844 5845 5845 5846 5846 5846 5847 5847 5848 5848 5849 5850 5850 5852 5852 5851 5851 5850 5849 5849 5849 5848 5849 5849 5850 5850 5849 5849 5849 5849 5849 5849 5848 5848 5848 5847 5847 5848 5848 5847 5847 5846 5845 5845 5845 5844 5844 5843 5842 5842 5842 5842 5842 5841 5841 5839 5838 5841 5841 5837 5836 5835 5834 5835 5836 5836 5834 5832 5830 5828 5826 5826 5827 5827
5832 5832 5833 5833 5834 5835 5835 5836 5837 5837 5838 5838 5839 5840 5841 5841 5842 5843 5843 5843 5843 5844 5844 5845 5845 5846 5847 5849 5849 5847 5848 5848 5847 5847 5846 5846 5846 5846 5846 5846 5846 5845 5846 5845 5845 5845 5844 5844 5844 5844 5843 5843 5844 5844 5843 5842 5841 5842 5842 5839 5839 5839 5838 5840 5838 5838 5839 5838 5837 5835 5833 5838 5841 5836 5832 5831 5830 5830 5831 5831 5829 5828 5826 5824 5823 5824 5825 5825
5828 5828 5829 5830 5830 5831 5831 5832 5833 5833 5834 5835 5836 5836 5837 5838 5839 5839 5839 5840 5840 5840 5840 5841 5841 5842 5844 5846 5845 5844 5845 5844 5844 5843 5842 5843 5843 5843 5843 5842 5842 5842 5842 5841 5840 5841 5840 5840 5840 5839 5839 5839 5839 5839 5839 5838 5837 5838 5837 5835 5834 5833 5834 5836 5835 5835 5836 5835 5833 5831 5828 5833 5839 5836 5830 5828 5826 5826 5826 5826 5825 5823 5822 5821 5821 5822 5822 5822
5823 5824 5825 5825 5826 5827 5827 5828 5829 5830 5831 5831 5832 5833 5834 5834 5835 5836 5836 5836 5836 5836 5837 5837 5837 5838 5840 5842 5841 5841 5842 5840 5839 5838 5838 5839 5839 5839 5839 5838 5838 5838 5838 5837 5837 5837 5837 5836 5835 5835 5835 5835 5836 5835 5834 5833 5833 5834 5832 5830 5831 5830 5829 5830 5831 5832 5832 5830 5828 5826 5825 5828 5833 5834 5830 5825 5824 5822 5822 5822 5820 5819 5819 5818 5818 5818 5818 5817
5819 5820 5820 5821 5822 5823 5823 5824 5825 5826 5827 5828 5829 5830 5830 5831 5831 5832 5832 5832 5832 5832 5833 5833 5833 5834 5835 5837 5837 5837 5837 5836 5835 5834 5834 5835 5835 5835 5835 5834 5835 5834 5834 5834 5833 5833 5833 5832 5831 5831 5831 5832 5833 5831 5829 5827 5829 5830 5826 5825 5826 5826 5825 5824 5826 5827 5826 5825 5823 5822 5823 5824 5826 5828 5828 5824 5820 5819 5817 5817 5815 5815 5816 5816 5815 5814 5812 5811
5815 5815 5816 5817 5818 5818 5819 5820 5821 5822 5823 5824 5824 5825 5826 5826 5827 5827 5828 5828 5828 5828 5828 5828 5829 5829 5830 5832 5833 5833 5833 5832 5832 5831 5830 5831 5831 5831 5830 5830 5830 5830 5830 5830 5829 5829 5828 5828 5827 5827 5828 5828 5829 5827 5824 5823 5825 5824 5822 5821 5821 5821 5820 5820 5821 5821 5819 5818 5818 5818 5818 5819 5820 5821 5822 5821 5818 5815 5813 5813 5813 5813 5813 5812 5811 5809 5808 5807
5811 5811 5812 5813 5813 5814 5815 5816 5817 5818 5819 5819 5820 5820 5821 5822 5823 5823 5823 5824 5824 5824 5824 5824 5825 5825 5826 5827 5828 5828 5829 5828 5827 5827 5827 5827 5826 5826 5826 5826 5826 5826 5826 5826 5826 5825 5823 5823 5823 5823 5824 5825 5824 5822 5819 5819 5820 5818 5817 5817 5817 5817 5816 5816 5817 5816 5813 5811 5811 5812 5812 5813 5814 5814 5815 5816 5815 5812 5810 5809 5810 5810 5809 5808 5806 5805 5804 5803
5806 5807 5807 5808 5809 5810 5811 5812 5813 5813 5814 5815 5815 5816 5817 5817 5818 5818 5819 5820 5820 5820 5819 5820 5821 5821 5821 5822 5822 5823 5824 5824 5824 5824 5823 5823 5822 5822 5822 5822 5822 5822 5822 5822 5821 5819 5819 5820 5819 5819 5821 5821 5819 5818 5816 5816 5814 5812 5812 5811 5812 5812 5811 5813 5813 5811 5809 5807 5806 5807 5807 5807 5808 5808 5808 5809 5808 5807 5806 5806 5806 5806 5805 5804 5802 5801 5801 5800
5801 5802 5803 5804 5805 5806 5807 5808 5808 5809 5809 5810 5811 5812 5812 5813 5814 5814 5814 5815 5815 5816 5815 5815 5816 5817 5817 5817 5816 5817 5819 5820 5820 5820 5819 5819 5819 5818 5818 5818 5817 5818 5818 5818 5816 5814 5815 5815 5814 5816 5817 5815 5814 5814 5812 5811 5809 5808 5807 5807 5806 5806 5807 5809 5809 5808 5806 5804 5804 5804 5803 5802 5802 5803 5803 5803 5802 5802 5802 5802 5802 5803 5802 5801 5799 5798 5797 5796
5796 5797 5797 5798 5799 5801 5802 5803 5804 5804 5805 5805 5806 5807 5807 5808 5809 5808 5809 5811 5812 5811 5811 5811 5811 5812 5814 5812 5810 5812 5814 5815 5816 5816 5816 5815 5815 5814 5814 5813 5813 5814 5814 5812 5810 5811 5811 5810 5812 5813 5811 5809 5810 5809 5807 5806 5805 5804 5803 5802 5802 5802 5803 5804 5803 5803 5801 5800 5801 5801 5799 5798 5797 5798 5798 5798 5799 5798 5797 5797 5798 5798 5798 5797 5796 5795 5794 5793
5791 5791 5792 5793 5794 5796 5797 5798 5799 5800 5800 5800 5801 5802 5803 5803 5804 5803 5803 5805 5808 5807 5806 5807 5806 5806 5808 5806 5806 5808 5808 5809 5810 5811 5812 5811 5811 5810 5809 5808 5809 5809 5808 5807 5807 5807 5805 5806 5809 5809 5806 5805 5804 5803 5802 5802 5801 5800 5798 5797 5797 5797 5797 5797 5797 5796 5795 5795 5795 5795 5794 5793 5793 5794 5794 5794 5796 5794 5792 5792 5793 5793 5793 5793 5792 5792 5791 5790
5786 5787 5788 5788 5790 5791 5792 5793 5794 5795 5795 5796 5796 5797 5798 5798 5798 5798 5797 5798 5802 5804 5802 5802 5802 5801 5801 5800 5800 5803 5803 5804 5804 5805 5807 5806 5806 5805 5803 5803 5804 5803 5803 5803 5803 5801 5800 5803 5805 5803 5801 5800 5799 5798 5798 5798 5797 5795 5794 5794 5793 5793 5791 5791 5791 5791 5790 5790 5790 5789 5788 5789 5790 5791 5790 5790 5792 5790 5788 5788 5788 5789 5789 5788 5788 5788 5787 5787
5781 5782 5783 5783 5784 5785 5786 5788 5788 5789 5790 5791 5791 5792 5792 5792 5792 5792 5792 5790 5792 5798 5799 5798 5796 5796 5796 5796 5796 5797 5798 5799 5799 5800 5801 5800 5799 5798 5798 5798 5797 5797 5799 5799 5797 5795 5796 5799 5799 5797 5795 5794 5794 5794 5794 5793 5792 5791 5790 5790 5790 5789 5787 5786 5786 5786 5786 5786 5785 5783 5782 5783 5786 5788 5787 5786 5786 5785 5783 5784 5784 5785 5784 5783 5782 5782 5783 5782
5776 5777 5777 5778 5779 5780 5781 5782 5783 5784 5785 5785 5786 5787 5787 5787 5786 5786 5786 5785 5784 5788 5792 5793 5792 5791 5791 5792 5792 5793 5793 5793 5794 5794 5794 5794 5793 5792 5793 5793 5792 5792 5793 5793 5791 5791 5793 5795 5794 5792 5790 5788 5788 5789 5789 5788 5787 5787 5787 5786 5786 5785 5784 5783 5783 5782 5781 5781 5780 5779 5776 5777 5780 5783 5784 5781 5780 5779 5778 5778 5779 5780 5780 5779 5777 5776 5776 5776
5770 5771 5772 5772 5773 5774 5775 5775 5777 5778 5778 5780 5780 5781 5781 5781 5781 5781 5781 5779 5778 5780 5782 5784 5786 5787 5788 5789 5788 5788 5788 5788 5788 5788 5787 5787 5787 5787 5787 5787 5787 5787 5787 5787 5786 5787 5789 5789 5788 5787 5786 5784 5784 5784 5783 5782 5782 5782 5782 5782 5781 5781 5780 5779 5779 5778 5777 5776 5776 5774 5772 5773 5775 5778 5779 5776 5774 5774 5774 5773 5774 5775 5775 5774 5773 5772 5771 5770
5764 5765 5765 5766 5767 5768 5769 5769 5770 5771 5772 5773 5775 5776 5776 5776 5775 5775 5776 5774 5772 5773 5773 5774 5778 5781 5783 5784 5784 5783 5783 5783 5782 5782 5781 5781 5781 5781 5781 5781 5781 5782 5782 5781 5781 5782 5783 5782 5782 5782 5781 5781 5781 5779 5778 5777 5777 5777 5777 5776 5776 5776 5775 5774 5774 5773 5772 5772 5770 5770 5769 5768 5769 5770 5772 5771 5769 5770 5770 5769 5768 5769 5769 5768 5766 5765 5764 5764
5758 5759 5759 5760 5761 5761 5762 5763 5764 5765 5766 5767 5769 5770 5769 5770 5770 5770 5771 5769 5766 5766 5767 5768 5771 5773 5775 5776 5776 5777 5776 5777 5776 5776 5776 5775 5775 5775 5775 5776 5776 5776 5776 5776 5776 5777 5777 5777 5777 5777 5777 5777 5776 5774 5773 5773 5773 5773 5772 5771 5770 5770 5769 5769 5768 5767 5767 5767 5766 5767 5766 5764 5764 5765 5764 5763 5762 5764 5765 5763 5763 5763 5763 5762 5760 5757 5756 5756
5752 5753 5754 5754 5755 5755 5756 5757 5758 5759 5760 5762 5763 5763 5763 5763 5764 5764 5765 5762 5759 5760 5763 5765 5766 5767 5768 5768 5769 5769 5770 5771 5770 5770 5771 5770 5770 5770 5770 5770 5771 5771 5771 5771 5772 5771 5771 5771 5771 5771 5771 5771 5771 5769 5769 5769 5768 5768 5768 5766 5765 5764 5763 5763 5762 5762 5761 5761 5763 5764 5762 5758 5759 5760 5759 5757 5755 5755 5756 5754 5753 5753 5753 5753 5753 5751 5749 5748
5746 5747 5747 5747 5748 5749 5749 5750 5752 5753 5755 5756 5756 5757 5757 5757 5758 5758 5756 5755 5755 5757 5759 5761 5761 5762 5762 5762 5762 5763 5763 5764 5765 5765 5765 5765 5765 5766 5766 5766 5766 5766 5765 5766 5766 5766 5766 5766 5766 5767 5766 5765 5765 5764 5764 5764 5764 5764 5762 5761 5760 5759 5758 5757 5756 5756 5754 5756 5759 5759 5755 5753 5753 5755 5755 5753 5751 5750 5749 5747 5744 5743 5741 5741 5742 5742 5741 5740
5740 5741 5741 5741 5743 5744 5744 5745 5746 5747 5748 5749 5750 5751 5751 5752 5752 5750 5748 5750 5753 5754 5755 5755 5755 5755 5756 5757 5757 5758 5758 5758 5759 5759 5759 5760 5761 5761 5761 5761 5761 5761 5760 5761 5761 5760 5761 5761 5762 5762 5761 5761 5761 5760 5760 5759 5759 5759 5757 5756 5756 5753 5752 5751 5750 5750 5748 5751 5754 5752 5749 5747 5747 5750 5751 5749 5748 5746 5745 5743 5740 5737 5735 5734 5733 5733 5733 5733
5735 5736 5735 5735 5737 5738 5738 5739 5740 5741 5741 5743 5744 5744 5745 5746 5745 5743 5744 5748 5749 5749 5751 5750 5749 5750 5750 5751 5752 5752 5752 5752 5753 5753 5754 5754 5755 5755 5755 5755 5756 5756 5755 5756 5756 5755 5757 5757 5756 5756 5757 5757 5756 5755 5755 5754 5753 5753 5752 5752 5750 5748 5746 5745 5745 5744 5743 5746 5747 5746 5744 5741 5742 5746 5746 5745 5744 5742 5739 5737 5735 5733 5730 5728 5727 5727 5727 5726
5729 5730 5730 5730 5731 5731 5732 5733 5734 5734 5736 5737 5737 5738 5739 5738 5738 5739 5742 5745 5743 5743 5744 5744 5744 5745 5745 5746 5746 5746 5747 5747 5748 5748 5748 5749 5749 5749 5750 5750 5749 5749 5749 5750 5750 5750 5752 5752 5752 5752 5752 5752 5750 5750 5749 5748 5748 5747 5747 5746 5744 5743 5741 5739 5740 5739 5737 5739 5740 5740 5738 5734 5736 5740 5739 5739 5738 5736 5733 5731 5729 5727 5724 5722 5721 5721 5720 5720
5724 5724 5723 5723 5724 5725 5726 5726 5728 5729 5730 5731 5731 5732 5732 5731 5732 5735 5737 5738 5737 5737 5739 5738 5739 5740 5740 5740 5740 5740 5742 5742 5742 5743 5743 5743 5744 5744 5744 5744 5743 5744 5744 5743 5743 5744 5745 5747 5748 5747 5746 5746 5745 5744 5743 5742 5742 5740 5740 5739 5738 5738 5736 5734 5734 5732 5730 5731 5733 5734 5732 5728 5731 5733 5732 5731 5731 5729 5727 5725 5722 5720 5718 5716 5714 5714 5713 5713
5718 5717 5715 5715 5717 5719 5720 5721 5722 5723 5724 5725 5726 5726 5725 5726 5728 5730 5731 5731 5731 5732 5734 5734 5735 5735 5734 5734 5734 5734 5736 5736 5736 5737 5737 5737 5738 5738 5739 5737 5737 5737 5737 5737 5737 5737 5738 5740 5742 5741 5740 5741 5740 5737 5736 5736 5735 5734 5733 5732 5732 5733 5731 5727 5726 5726 5725 5723 5725 5729 5727 5723 5724 5725 5725 5723 5722 5721 5719 5718 5716 5714 5712 5711 5708 5707 5706 5705
5711 5711 5710 5711 5713 5713 5714 5715 5717 5717 5718 5720 5720 5720 5721 5723 5725 5725 5725 5725 5725 5727 5729 5729 5730 5730 5730 5730 5730 5729 5729 5730 5730 5730 5731 5731 5731 5732 5732 5731 5731 5731 5730 5731 5730 5730 5731 5732 5735 5735 5733 5734 5734 5731 5729 5729 5728 5727 5726 5726 5727 5726 5724 5721 5718 5720 5718 5713 5716 5722 5721 5718 5717 5717 5718 5716 5714 5714 5712 5710 5709 5707 5706 5705 5702 5701 5699 5698
5705 5705 5706 5707 5708 5707 5708 5710 5710 5711 5712 5713 5714 5716 5718 5720 5721 5720 5720 5720 5719 5720 5723 5723 5723 5724 5725 5726 5725 5724 5724 5724 5724 5724 5725 5725 5724 5725 5725 5724 5725 5725 5723 5724 5723 5722 5723 5724 5727 5728 5726 5725 5727 5725 5722 5721 5722 5721 5720 5720 5719 5717 5717 5716 5712 5711 5711 5705 5705 5711 5713 5713 5711 5708 5709 5709 5706 5706 5705 5702 5701 5700 5698 5697 5695 5693 5691 5690
5698 5699 5701 5701 5701 5702 5703 5703 5704 5705 5705 5706 5708 5711 5713 5715 5716 5714 5714 5714 5713 5713 5715 5716 5716 5717 5718 5719 5718 5718 5718 5718 5717 5717 5718 5718 5716 5717 5719 5718 5718 5718 5717 5718 5717 5716 5716 5716 5719 5722 5720 5718 5720 5719 5715 5713 5714 5714 5712 5711 5710 5708 5708 5708 5704 5702 5701 5696 5695 5698 5702 5705 5705 5702 5701 5700 5698 5698 5697 5695 5693 5691 5690 5688 5687 5685 5684 5682
5691 5693 5694 5695 5695 5695 5697 5697 5697 5698 5697 5699 5702 5704 5706 5709 5709 5708 5707 5707 5707 5707 5708 5710 5710 5710 5711 5712 5712 5711 5711 5711 5710 5709 5709 5711 5710 5710 5712 5712 5712 5712 5711 5712 5711 5709 5710 5709 5710 5714 5714 5711 5712 5713 5710 5707 5705 5705 5703 5702 5701 5700 5699 5699 5697 5695 5692 5688 5686 5687 5688 5694 5698 5697 5694 5691 5690 5691 5690 5688 5686 5684 5682 5681 5680 5678 5676 5675
5685 5685 5686 5688 5688 5688 5690 5691 5690 5690 5690 5694 5697 5697 5700 5702 5702 5701 5701 5700 5700 5700 5701 5702 5703 5704 5704 5705 5705 5704 5703 5703 5704 5702 5701 5703 5704 5703 5704 5706 5707 5706 5705 5705 5704 5703 5703 5700 5701 5706 5707 5705 5705 5706 5704 5700 5697 5696 5695 5695 5694 5693 5691 5690 5689 5690 5685 5680 5679 5677 5675 5681 5689 5689 5686 5683 5682 5682 5681 5680 5679 5677 5676 5674 5673 5671 5669 5667
5678 5678 5679 5681 5681 5682 5683 5682 5683 5684 5685 5689 5691 5690 5693 5695 5695 5695 5693 5692 5692 5693 5694 5694 5695 5697 5697 5697 5697 5697 5695 5695 5697 5696 5695 5697 5698 5697 5698 5700 5700 5700 5699 5698 5697 5696 5696 5693 5692 5696 5699 5700 5700 5698 5695 5691 5689 5688 5687 5687 5687 5686 5684 5681 5679 5682 5681 5674 5672 5670 5666 5669 5678 5680 5677 5676 5675 5674 5672 5671 5671 5671 5669 5667 5665 5663 5661 5659
5672 5672 5672 5673 5673 5675 5675 5674 5676 5678 5678 5682 5684 5684 5685 5687 5688 5688 5686 5685 5685 5685 5686 5687 5688 5689 5689 5690 5690 5689 5688 5688 5690 5690 5690 5692 5693 5691 5692 5693 5693 5693 5693 5691 5689 5690 5689 5685 5683 5685 5689 5693 5692 5689 5685 5681 5681 5680 5678 5679 5679 5678 5677 5673 5670 5672 5672 5668 5667 5665 5658 5659 5668 5670 5668 5668 5668 5665 5664 5663 5663 5663 5662 5660 5657 5655 5652 5650
5665 5665 5665 5666 5666 5667 5666 5666 5669 5670 5671 5674 5676 5676 5677 5678 5679 5680 5679 5678 5677 5678 5679 5680 5681 5681 5681 5682 5682 5682 5681 5681 5683 5685 5685 5685 5686 5686 5685 5685 5685 5686 5684 5683 5682 5682 5680 5676 5675 5675 5678 5683 5685 5682 5677 5673 5672 5672 5670 5671 5671 5670 5669 5667 5663 5661 5660 5659 5661 5657 5651 5653 5659 5659 5659 5660 5659 5656 5655 5655 5655 5654 5653 5651 5648 5646 5644 5641
5656 5657 5658 5659 5658 5658 5658 5659 5660 5661 5663 5666 5666 5666 5668 5669 5671 5672 5671 5670 5670 5670 5670 5672 5673 5673 5674 5675 5673 5674 5674 5674 5676 5678 5679 5678 5678 5679 5678 5677 5677 5677 5676 5674 5674 5674 5672 5668 5667 5667 5667 5671 5675 5676 5671 5666 5665 5664 5664 5664 5663 5663 5662 5658 5656 5654 5648 5648 5652 5648 5645 5649 5651 5650 5652 5652 5649 5647 5646 5645 5645 5645 5643 5641 5639 5637 5634 5632
5647 5648 5649 5650 5650 5650 5651 5653 5653 5653 5655 5656 5655 5657 5659 5660 5663 5665 5663 5662 5663 5662 5661 5663 5665 5665 5665 5666 5665 5666 5667 5667 5668 5669 5670 5670 5670 5671 5671 5670 5670 5670 5668 5667 5667 5667 5664 5661 5661 5660 5658 5659 5664 5667 5664 5659 5656 5655 5657 5658 5657 5657 5655 5651 5649 5645 5639 5639 5641 5640 5639 5643 5644 5644 5644 5642 5639 5638 5637 5636 5635 5635 5633 5632 5629 5627 5624 5622
5638 5639 5641 5642 5641 5642 5645 5647 5645 5645 5649 5649 5647 5649 5651 5652 5655 5656 5654 5654 5654 5654 5654 5654 5656 5656 5656 5657 5657 5658 5660 5660 5659 5659 5662 5662 5661 5662 5662 5662 5662 5662 5661 5660 5659 5658 5655 5654 5654 5653 5650 5650 5654 5656 5654 5650 5648 5648 5649 5651 5651 5651 5649 5645 5640 5636 5634 5632 5631 5634 5635 5633 5636 5640 5637 5633 5630 5628 5627 5627 5625 5625 5624 5622 5620 5617 5615 5613
5628 5630 5633 5634 5631 5633 5637 5639 5638 5639 5642 5641 5638 5641 5643 5644 5645 5645 5645 5645 5646 5647 5647 5646 5648 5649 5649 5651 5651 5650 5652 5652 5651 5652 5654 5653 5651 5651 5652 5654 5654 5653 5654 5653 5651 5650 5646 5645 5647 5645 5642 5643 5644 5644 5643 5641 5639 5640 5641 5642 5645 5644 5641 5637 5631 5628 5629 5623 5620 5628 5631 5622 5624 5631 5630 5625 5621 5617 5617 5616 5615 5615 5614 5612 5610 5607 5605 5604
5619 5621 5624 5622 5621 5623 5629 5632 5632 5630 5632 5631 5629 5631 5634 5636 5636 5636 5637 5638 5637 5639 5639 5638 5640 5642 5642 5644 5643 5642 5643 5643 5642 5645 5647 5645 5642 5641 5643 5645 5644 5645 5646 5643 5643 5642 5637 5637 5639 5636 5633 5635 5636 5634 5633 5632 5630 5631 5633 5634 5636 5637 5634 5628 5623 5623 5623 5615 5611 5619 5620 5613 5614 5621 5620 5616 5612 5608 5606 5605 5605 5605 5604 5602 5600 5598 5595 5593
5609 5612 5613 5612 5613 5617 5622 5625 5623 5620 5622 5623 5621 5623 5627 5628 5628 5629 5629 5629 5628 5630 5632 5630 5632 5635 5634 5634 5634 5633 5635 5635 5634 5635 5637 5636 5634 5633 5633 5634 5634 5637 5638 5635 5634 5632 5629 5629 5629 5626 5624 5627 5628 5625 5623 5622 5621 5623 5625 5626 5627 5628 5625 5620 5619 5620 5616 5607 5605 5608 5605 5603 5609 5611 5607 5605 5604 5601 5598 5596 5595 5594 5593 5592 5590 5588 5586 5584
5599 5602 5603 5602 5605 5611 5614 5615 5614 5612 5615 5615 5613 5617 5621 5620 5620 5622 5621 5621 5620 5622 5624 5624 5625 5626 5625 5624 5625 5624 5626 5628 5626 5626 5627 5627 5626 5624 5624 5623 5624 5627 5628 5627 5625 5623 5621 5620 5619 5617 5616 5618 5621 5617 5612 5612 5612 5613 5616 5619 5620 5618 5616 5614 5614 5613 5607 5600 5600 5599 5592 5593 5601 5600 5595 5595 5594 5592 5590 5587 5586 5584 5582 5582 5580 5579 5577 5573
5589 5592 5594 5593 5597 5603 5604 5605 5606 5604 5605 5607 5608 5611 5612 5611 5614 5614 5611 5610 5612 5612 5614 5617 5617 5616 5615 5616 5617 5617 5618 5618 5617 5617 5618 5618 5617 5615 5615 5614 5615 5616 5618 5618 5616 5614 5614 5612 5610 5609 5605 5609 5615 5608 5601 5603 5602 5601 5607 5615 5615 5611 5607 5605 5604 5601 5599 5596 5593 5589 5584 5585 5588 5587 5585 5586 5584 5582 5581 5579 5576 5573 5572 5571 5570 5568 5566 5562
5580 5583 5586 5586 5588 5593 5595 5596 5596 5594 5596 5601 5603 5602 5603 5603 5605 5605 5600 5600 5603 5603 5605 5608 5608 5608 5607 5607 5609 5609 5609 5608 5608 5608 5608 5609 5608 5607 5606 5605 5606 5607 5608 5607 5607 5607 5605 5603 5603 5600 5593 5599 5606 5599 5593 5594 5590 5591 5603 5610 5607 5602 5597 5595 5594 5594 5594 5589 5583 5579 5577 5577 5577 5576 5576 5575 5573 5572 5571 5569 5566 5562 5559 5559 5559 5556 5553 5549